Location: Unspecified
(0.0000°N, 0.0000°E)
Time: 16:23:10
(UTC+00:00)

XW-2B - Visible Passes

Search period start: 13 December 2019 00:00
Search period end: 23 December 2019 00:00
Orbit: 509 x 527 km, 97.5° (Epoch: 13 December)

Date Brightness Start Highest point End Pass type
(mag) Time Alt. Az. Time Alt. Az. Time Alt. Az.
13 Dec ? 04:42:49 10° E 04:43:40 11° ESE 04:44:32 10° ESE visible
17 Dec ? 05:17:31 10° NNE 05:21:06 40° E 05:24:40 10° S visible
18 Dec ? 05:03:53 10° NE 05:06:59 24° ESE 05:10:05 10° SSE visible
18 Dec ? 18:32:15 10° SW 18:33:45 12° WSW 18:35:17 10° WNW visible
19 Dec ? 04:50:43 10° ENE 04:52:53 15° ESE 04:55:04 10° SE visible
